Weather History for Keene, NH

Change the Weather History Date:

Friday, January 4, 2013

  Actual Average Record
Temperature  
Mean Temperature 22 °F -  
Max Temperature 37 °F 32 °F 65 °F (1950)
Min Temperature 6 °F 13 °F -16 °F (1981)
Degree Days  
Heating Degree Days 44    
Moisture  
Dew Point 14 °F    
Average Humidity 63    
Maximum Humidity 92    
Minimum Humidity 45    
Precipitation  
Precipitation 0.00 in - - ()
Sea Level Pressure  
Sea Level Pressure 29.87 in    
Wind  
Wind Speed 3 mph (WSW)    
Max Wind Speed 15 mph    
Max Gust Speed 28 mph    
Visibility 9 miles    
Events      
Averages and records for this station are not official NWS values.
T = Trace of Precipitation, MM = Missing Value Source: NWS Daily Summary

Daily Weather History Graph

Daily Weather History Graph

Search for Another Location

Airport:

Trip Planner

Search our weather history database for the weather conditions in past years. The results will help you decide how hot, cold, wet, or windy it might be!

Date:

Astronomy

Jan. 04, 2013 Rise Set
Actual Time 7:20 AM EST 4:28 PM EST
Civil Twilight 6:48 AM EST 5:00 PM EST
Nautical Twilight 6:12 AM EST 5:36 PM EST
Astronomical Twilight 5:38 AM EST 6:10 PM EST
Moon No Moon Rise 10:50 AM EST (1/4)
Length of Visible Light 10h 12m
Length of Day
9h 08m
Waning Gibbous, 55% of the Moon is Illuminated
Jan 4
Waning Gibbous
Jan 4
Last Quarter
Jan 11
New
Jan 18
First Quarter
Jan 26
Full

Hourly Weather History & Observations

Time (EST) Temp. Windchill Dew Point Humidity Pressure Visibility Wind Dir Wind Speed Gust Speed Precip Events Conditions
12:15 AM 6.8 °F - 1.4 °F 79% 29.96 in 10.0 mi Calm Calm - N/A   Mostly Cloudy
12:35 AM 6.8 °F - 3.2 °F 85% 29.95 in 7.0 mi Calm Calm - N/A   Overcast
1:15 AM 6.8 °F - 3.2 °F 85% 29.94 in 10.0 mi Calm Calm - N/A   Clear
2:15 AM 6.8 °F - 3.2 °F 85% 29.95 in 8.0 mi Calm Calm - N/A   Mostly Cloudy
2:35 AM 6.8 °F - 3.2 °F 85% 29.95 in 8.0 mi Calm Calm - N/A   Overcast
3:15 AM 6.8 °F - 3.2 °F 85% 29.94 in 8.0 mi Calm Calm - N/A   Overcast
3:35 AM 6.8 °F - 3.2 °F 85% 29.94 in 8.0 mi Calm Calm - N/A   Mostly Cloudy
3:55 AM 6.8 °F -0.1 °F 3.2 °F 85% 29.93 in 10.0 mi SSW 3.5 mph - N/A   Mostly Cloudy
4:55 AM 8.6 °F - 3.2 °F 79% 29.92 in 7.0 mi Calm Calm - N/A   Mostly Cloudy
5:35 AM 10.4 °F - 6.8 °F 85% 29.92 in 6.0 mi Calm Calm - N/A   Overcast
5:55 AM 10.4 °F - 6.8 °F 85% 29.92 in 7.0 mi Calm Calm - N/A   Mostly Cloudy
6:15 AM 10.4 °F - 6.8 °F 85% 29.92 in 7.0 mi Calm Calm - N/A   Mostly Cloudy
6:35 AM 10.4 °F - 6.8 °F 85% 29.92 in 7.0 mi Calm Calm - N/A   Overcast
7:35 AM 12.2 °F - 10.4 °F 92% 29.93 in 7.0 mi Calm Calm - N/A   Overcast
7:55 AM 14.0 °F - 10.4 °F 86% 29.92 in 8.0 mi Calm Calm - N/A   Overcast
8:15 AM 14.0 °F - 8.6 °F 79% 29.91 in 8.0 mi Calm Calm - N/A   Overcast
8:35 AM 15.8 °F 10.2 °F 10.4 °F 79% 29.91 in 8.0 mi South 3.5 mph - N/A   Overcast
8:55 AM 17.6 °F 10.7 °F 12.2 °F 79% 29.91 in 9.0 mi South 4.6 mph - N/A   Overcast
9:15 AM 17.6 °F 9.3 °F 12.2 °F 79% 29.91 in 9.0 mi SSW 5.8 mph - N/A   Mostly Cloudy
9:55 AM 30.2 °F 26.7 °F 19.4 °F 64% 29.91 in 10.0 mi South 3.5 mph - N/A   Overcast
10:35 AM 32.0 °F 24.8 °F 19.4 °F 60% 29.89 in 10.0 mi WSW 8.1 mph - N/A   Overcast
10:55 AM 33.8 °F 24.3 °F 17.6 °F 52% 29.87 in 10.0 mi SW 13.8 mph 19.6 mph N/A   Overcast
11:15 AM 33.8 °F 25.3 °F 19.4 °F 56% 29.87 in 10.0 mi WSW 11.5 mph - N/A   Overcast
11:55 AM 35.6 °F 31.7 °F 19.4 °F 52% 29.83 in 10.0 mi SW 4.6 mph 17.3 mph N/A   Overcast
12:15 PM 35.6 °F 29.2 °F 17.6 °F 48% 29.82 in 10.0 mi West 8.1 mph - N/A   Mostly Cloudy
12:35 PM 35.6 °F 26.2 °F 19.4 °F 52% 29.81 in 10.0 mi WSW 15.0 mph - N/A   Partly Cloudy
12:55 PM 37.4 °F 31.4 °F 17.6 °F 45% 29.80 in 10.0 mi SW 8.1 mph 18.4 mph N/A   Clear
2:15 PM 37.4 °F 29.3 °F 19.4 °F 48% 29.79 in 10.0 mi WNW 12.7 mph 21.9 mph N/A   Clear
2:35 PM 37.4 °F 32.8 °F 19.4 °F 48% 29.80 in 10.0 mi WNW 5.8 mph 16.1 mph N/A   Clear
2:55 PM 37.4 °F 33.8 °F 19.4 °F 48% 29.80 in 10.0 mi WNW 4.6 mph - N/A   Clear
3:35 PM 35.6 °F 30.7 °F 19.4 °F 52% 29.80 in 10.0 mi West 5.8 mph - N/A   Overcast
3:55 PM 35.6 °F 30.7 °F 19.4 °F 52% 29.80 in 10.0 mi WSW 5.8 mph - N/A   Mostly Cloudy
4:55 PM 35.6 °F - 17.6 °F 48% 29.81 in 10.0 mi Calm Calm - N/A   Overcast
5:16 PM 35.6 °F - 19.4 °F 52% 29.81 in 10.0 mi Calm Calm - N/A   Overcast
5:35 PM 35.6 °F 31.7 °F 19.4 °F 52% 29.82 in 10.0 mi WNW 4.6 mph - N/A   Overcast
5:55 PM 35.6 °F 30.7 °F 19.4 °F 52% 29.82 in 10.0 mi NNW 5.8 mph - N/A   Overcast
6:15 PM 35.6 °F 29.9 °F 17.6 °F 48% 29.83 in 10.0 mi WNW 6.9 mph - N/A   Overcast
6:55 PM 35.6 °F 32.8 °F 17.6 °F 48% 29.82 in 10.0 mi SW 3.5 mph 21.9 mph N/A   Overcast
7:55 PM 35.6 °F 29.2 °F 17.6 °F 48% 29.83 in 10.0 mi WSW 8.1 mph - N/A   Overcast
8:15 PM 35.6 °F 30.7 °F 17.6 °F 48% 29.83 in 10.0 mi West 5.8 mph - N/A   Overcast
8:35 PM 35.6 °F 27.5 °F 17.6 °F 48% 29.82 in 10.0 mi WSW 11.5 mph - N/A   Overcast
8:55 PM 35.6 °F 28.0 °F 17.6 °F 48% 29.82 in 10.0 mi West 10.4 mph 18.4 mph N/A   Overcast
9:15 PM 35.6 °F 28.6 °F 17.6 °F 48% 29.83 in 10.0 mi WSW 9.2 mph - N/A   Overcast
9:35 PM 35.6 °F 28.0 °F 17.6 °F 48% 29.83 in 10.0 mi WNW 10.4 mph - N/A   Overcast
9:55 PM 35.6 °F 28.0 °F 17.6 °F 48% 29.84 in 10.0 mi WNW 10.4 mph 27.6 mph N/A   Overcast
10:15 PM 35.6 °F 31.7 °F 17.6 °F 48% 29.83 in 10.0 mi West 4.6 mph 17.3 mph N/A   Overcast
10:55 PM 33.8 °F 25.8 °F 17.6 °F 52% 29.83 in 10.0 mi WNW 10.4 mph 19.6 mph N/A   Overcast
11:15 PM 33.8 °F 24.3 °F 19.4 °F 56% 29.83 in 10.0 mi West 13.8 mph 27.6 mph N/A   Overcast
11:35 PM 33.8 °F 25.3 °F 19.4 °F 56% 29.83 in 10.0 mi West 11.5 mph 20.7 mph N/A   Overcast
11:55 PM 33.8 °F 25.8 °F 17.6 °F 52% 29.83 in 10.0 mi West 10.4 mph 20.7 mph N/A   Overcast